Temp
12 12 11 11 11 11 11 11 11 10 10 10 10 9 9 9 9 9 9 9 9 9 9 9 8 8 8 8 8 8 8 8 8 9 9 8 8 7 7 7 7 6 6 6 6 6 6 6 5 5 5 4 4 5 5 5 5 5 6 6 6 6 5
12 12 12 11 11 11 10 11 10 10 10 10 9 9 9 9 9 9 9 9 9 9 9 9 8 8 8 8 8 8 8 8 8 8 8 8 7 7 7 6 6 6 5 5 5 6 5 5 5 4 4 4 4 4 5 5 5 5 5 5 5 5 5
12 12 12 11 11 10 10 10 10 10 10 9 9 9 9 9 9 9 9 9 9 9 9 8 8 8 8 8 8 8 8 8 8 8 8 7 7 7 6 6 6 5 5 5 5 5 5 5 4 4 4 4 4 4 4 5 5 5 5 5 5 5 5
12 12 12 11 11 10 10 11 10 10 9 9 9 9 9 9 9 9 8 8 8 8 8 8 8 8 7 8 8 8 8 7 7 7 7 7 7 7 6 6 5 5 4 4 4 4 4 4 4 4 4 4 4 4 4 5 5 5 5 5 5 5 5
12 12 12 12 11 11 11 11 10 10 9 9 9 9 9 9 9 8 8 8 8 8 8 8 7 7 7 7 7 7 7 7 7 7 7 7 7 6 6 6 5 5 4 4 4 4 4 4 4 4 4 4 4 4 4 4 5 5 5 5 5 5 5
13 12 12 12 11 11 11 10 10 10 9 9 9 9 9 9 8 8 8 8 8 8 8 8 7 7 7 7 7 7 7 7 7 7 7 6 6 6 6 5 5 5 4 4 4 4 4 3 3 3 4 4 4 4 4 4 4 4 4 4 5 5 5
13 12 12 12 11 11 11 10 10 9 9 9 9 9 9 8 8 8 8 8 8 8 7 7 7 7 6 7 7 7 7 7 7 6 6 6 6 6 5 5 5 4 4 4 3 3 3 3 3 3 3 4 4 4 4 4 4 4 4 4 4 4 4
13 12 12 11 11 11 10 10 10 9 9 9 9 9 8 8 8 8 7 7 7 7 7 7 6 6 6 6 6 6 6 6 6 6 6 5 5 5 5 4 4 4 4 3 3 3 2 2 2 3 3 3 4 4 4 3 3 3 3 4 4 4 4
12 12 12 11 11 10 10 10 9 9 9 9 9 8 8 8 8 7 7 7 7 7 7 6 6 6 6 6 6 6 6 6 6 6 5 5 5 5 5 4 4 3 3 3 3 3 2 2 2 2 3 3 3 3 3 3 3 3 4 4 4 4 4
12 12 11 11 11 10 10 10 9 9 9 9 8 8 8 8 8 7 7 7 7 7 6 6 6 6 6 6 6 6 6 6 6 5 5 5 5 4 4 4 3 3 3 3 3 3 2 2 2 2 2 3 3 3 3 3 3 3 3 4 4 4 4
12 12 11 11 11 10 10 10 9 9 9 8 8 8 8 8 7 7 7 7 7 7 6 6 6 5 5 5 5 5 5 5 5 5 5 5 4 4 4 4 3 3 3 3 3 3 2 2 2 2 2 2 2 2 3 3 3 3 3 3 3 3 4
12 11 11 11 11 10 10 9 9 9 8 8 8 8 8 7 7 7 7 7 7 6 6 6 5 5 5 5 5 5 5 5 5 5 5 5 5 4 4 4 3 3 3 3 3 2 2 2 2 2 2 2 2 2 2 2 2 2 3 3 3 3 4
12 11 11 11 10 10 10 9 9 8 8 8 8 8 8 7 7 7 7 7 6 6 6 5 5 5 5 5 5 5 5 5 5 5 5 5 5 4 4 4 3 3 3 3 3 2 2 2 2 2 2 2 2 2 2 2 2 2 2 3 3 3 4
12 11 11 10 10 10 9 9 9 8 8 8 8 8 7 7 7 7 7 6 6 6 6 5 5 5 5 5 5 4 4 4 5 5 5 5 5 4 4 4 3 3 3 3 3 2 2 2 2 2 2 2 2 2 1 1 2 2 2 3 3 3 4
12 11 11 10 10 10 9 9 8 8 8 8 8 8 7 7 7 7 7 6 6 6 6 5 5 5 4 5 5 4 4 4 4 4 5 5 5 4 4 4 3 3 3 3 3 2 2 2 2 2 2 2 1 1 1 2 2 2 2 3 3 3 4
12 11 11 10 10 9 9 9 8 8 8 8 8 7 7 7 7 7 6 6 6 6 6 5 5 4 4 4 5 5 4 4 4 4 4 5 5 4 4 4 4 4 3 3 3 2 2 2 2 2 2 2 2 1 1 2 2 2 2 2 3 3 3
12 11 11 10 10 9 9 9 8 8 8 8 8 7 7 7 7 6 6 6 6 6 5 5 5 5 4 4 4 5 5 4 4 4 4 4 4 4 4 4 4 4 4 3 3 2 2 2 2 2 2 2 2 2 2 2 2 2 2 2 2 2 3
12 11 11 10 9 9 9 9 8 8 8 8 7 7 6 6 6 6 6 6 6 6 5 5 5 5 4 4 4 4 4 4 4 4 4 4 4 4 4 4 4 4 4 4 3 2 2 2 2 2 2 2 2 2 2 2 2 2 2 2 2 2 2
11 11 10 10 9 9 9 8 8 8 8 8 7 7 6 6 6 6 5 5 5 5 5 5 5 5 4 4 4 4 4 4 4 4 4 4 4 4 4 4 4 4 4 3 3 3 2 2 2 2 2 2 2 2 2 2 3 3 2 2 2 2 2
11 11 10 10 9 9 8 8 8 8 8 7 7 6 6 6 6 5 5 5 5 5 5 5 5 5 4 4 4 4 3 3 3 3 3 3 4 4 4 4 4 4 4 3 3 2 2 2 2 2 2 2 2 2 2 2 2 2 2 1 1 2 2
11 10 10 10 9 9 8 8 8 8 8 7 7 6 6 5 5 5 5 5 5 5 5 5 5 4 4 4 4 4 3 3 3 3 3 3 3 4 4 4 4 4 3 3 3 2 2 2 2 2 2 2 2 2 2 2 2 2 1 1 1 2 2
11 10 10 9 9 9 8 8 8 8 7 7 6 6 6 5 5 5 5 5 5 5 4 4 4 4 4 4 4 3 3 3 3 3 3 3 3 4 4 4 4 3 3 3 2 2 2 2 2 2 2 2 2 2 2 2 2 1 1 1 1 1 2
10 9 9 9 9 8 8 8 8 7 7 6 6 6 5 5 5 5 5 4 4 4 4 4 4 4 4 4 4 3 3 3 3 3 3 3 3 3 4 4 3 3 3 3 2 2 2 2 2 2 2 2 2 2 2 2 2 2 1 1 1 1 1
9 9 9 9 9 9 8 8 7 7 6 6 6 6 5 5 5 5 4 4 4 4 4 4 4 4 4 4 4 3 3 3 3 3 3 3 3 3 3 3 3 3 3 3 2 2 2 2 2 2 2 2 2 2 2 2 2 2 1 1 1 1 1
9 9 9 9 9 8 8 7 7 7 6 6 6 5 5 5 5 5 4 4 4 4 4 4 4 4 4 4 3 3 3 3 2 3 3 3 3 3 3 3 3 3 3 3 3 3 3 3 3 2 3 3 2 2 2 2 2 2 2 1 1 1 1
9 9 9 8 8 8 7 7 7 7 6 6 6 5 5 5 5 4 4 4 4 4 4 4 4 4 4 4 3 3 3 2 2 2 2 2 3 3 3 3 3 2 2 3 3 3 3 3 3 3 3 3 3 3 3 3 2 2 2 1 1 1 1
9 9 8 8 8 8 7 7 7 7 7 6 6 5 5 5 5 4 4 4 4 4 4 4 4 3 4 4 3 3 3 2 2 2 2 2 3 3 3 2 2 2 2 2 3 3 3 2 2 2 3 3 3 3 3 3 3 3 2 2 1 1 1
9 8 8 8 8 8 7 7 7 7 6 6 5 5 5 5 5 4 4 4 4 4 3 3 3 3 3 3 3 3 3 2 2 2 2 2 2 2 2 2 2 2 2 2 2 2 2 2 2 2 2 3 3 3 3 3 3 3 3 2 2 1 1
9 9 8 8 8 7 7 7 7 6 6 5 5 5 5 5 4 4 4 4 3 3 3 3 3 3 3 3 3 3 3 2 2 2 2 2 2 2 2 2 2 2 2 2 2 2 2 2 2 2 2 2 2 3 3 3 2 3 3 3 2 2 1
8 8 8 8 7 7 7 7 6 6 6 5 5 5 5 5 4 4 4 4 3 3 3 3 3 3 3 3 3 3 2 2 2 2 1 1 2 2 1 1 1 2 2 2 2 2 2 2 2 2 2 2 2 2 3 3 3 2 2 2 2 2 1
8 8 8 7 7 7 7 6 6 6 5 5 5 5 5 4 4 4 4 3 3 3 3 3 3 3 2 2 3 2 2 2 2 1 1 1 1 1 1 1 1 1 1 2 2 1 1 1 2 2 2 2 2 2 2 2 3 2 2 2 2 2 2
7 7 7 7 7 7 6 6 6 6 5 5 5 5 4 4 4 4 4 3 3 3 3 2 2 2 2 2 2 2 2 2 1 1 1 1 1 1 1 1 1 1 1 1 1 1 1 1 1 2 2 2 2 2 2 2 2 2 2 2 2 2 2
7 7 7 7 6 6 6 6 6 5 5 5 5 4 4 4 4 4 3 3 3 2 2 2 2 2 2 2 2 2 1 1 1 1 1 1 1 1 1 1 1 1 1 1 1 1 1 1 1 2 2 2 2 2 2 2 2 2 2 2 2 2 2
7 7 6 6 6 6 6 6 5 5 5 5 4 4 4 4 4 3 3 3 2 2 2 2 2 2 2 2 2 1 1 1 1 1 1 1 1 1 1 1 1 1 1 1 1 1 1 1 1 1 1 2 2 2 1 1 1 2 2 2 2 2 2
7 6 6 6 6 6 6 5 5 5 5 4 4 4 4 4 3 3 3 2 2 2 2 2 1 1 1 1 1 1 1 1 1 1 1 1 1 1 1 1 1 1 1 1 1 1 1 1 1 1 1 1 1 1 1 1 1 1 1 2 2 2 2
6 6 6 6 6 6 5 5 5 4 4 4 4 4 4 3 3 3 2 2 2 2 2 2 1 1 1 1 1 1 1 1 1 1 1 1 1 1 1 1 1 1 1 1 1 0 0 1 1 1 1 1 1 1 1 1 1 1 1 1 2 2 2
6 6 6 6 5 5 5 4 4 4 4 4 4 3 3 3 3 2 2 2 2 2 2 1 1 1 1 1 1 1 1 1 1 1 1 1 1 1 1 1 1 1 1 1 1 0 0 0 0 1 1 1 1 1 1 1 1 1 1 1 1 1 2
6 6 6 5 5 4 4 4 4 4 4 3 3 3 3 3 2 2 2 2 2 2 1 1 1 1 1 1 0 0 1 1 1 1 1 1 1 1 1 1 1 1 1 1 1 0 0 0 0 1 1 1 1 1 1 1 1 1 1 1 1 1 1
Height
3190 3191 3192 3192 3192 3193 3194 3194 3194 3194 3193 3192 3191 3190 3189 3188 3187 3186 3184 3182 3180 3178 3175 3173 3170 3168 3166 3164 3162 3161 3160 3158 3157 3155 3153 3151 3149 3147 3145 3144 3142 3141 3139 3137 3136 3135 3133 3133 3132 3132 3132 3132 3132 3132 3132 3131 3130 3130 3130 3130 3129 3129 3128
3187 3189 3190 3190 3190 3191 3192 3192 3192 3192 3191 3190 3189 3188 3187 3186 3185 3184 3182 3180 3178 3176 3173 3171 3168 3166 3163 3161 3159 3157 3156 3155 3153 3152 3150 3148 3146 3144 3142 3140 3139 3137 3136 3134 3133 3132 3130 3129 3129 3128 3128 3128 3127 3127 3127 3127 3126 3125 3125 3125 3124 3123 3123
3185 3186 3188 3188 3189 3190 3190 3190 3190 3190 3189 3188 3187 3186 3185 3184 3183 3181 3179 3177 3175 3173 3171 3168 3165 3163 3161 3159 3157 3155 3153 3152 3150 3149 3147 3146 3144 3142 3140 3138 3136 3134 3133 3131 3130 3128 3128 3126 3125 3125 3124 3124 3123 3123 3122 3122 3121 3120 3119 3119 3119 3118 3118
3182 3184 3186 3186 3186 3187 3187 3188 3188 3188 3187 3186 3185 3184 3184 3183 3181 3179 3177 3175 3173 3171 3168 3165 3162 3160 3158 3157 3155 3154 3152 3150 3148 3146 3145 3143 3141 3139 3137 3135 3133 3131 3129 3128 3126 3125 3124 3123 3122 3121 3120 3120 3119 3118 3117 3117 3116 3115 3114 3113 3113 3113 3113
3180 3182 3183 3183 3184 3185 3185 3186 3186 3186 3184 3183 3183 3182 3182 3180 3179 3177 3175 3173 3171 3168 3165 3162 3160 3158 3156 3155 3153 3152 3150 3148 3146 3144 3143 3141 3139 3137 3135 3133 3131 3129 3127 3125 3123 3122 3121 3120 3119 3118 3116 3115 3115 3114 3113 3112 3111 3110 3110 3108 3107 3107 3108
3178 3179 3180 3181 3181 3182 3183 3184 3184 3183 3182 3181 3181 3181 3179 3178 3177 3174 3172 3170 3168 3165 3162 3160 3158 3156 3154 3152 3151 3149 3148 3146 3144 3142 3141 3139 3137 3135 3133 3130 3128 3126 3124 3122 3121 3119 3118 3116 3115 3114 3113 3111 3110 3110 3109 3108 3107 3106 3105 3104 3102 3102 3102
3176 3177 3178 3178 3179 3180 3181 3181 3181 3181 3180 3180 3179 3178 3177 3176 3174 3172 3170 3168 3165 3162 3159 3157 3155 3153 3152 3150 3149 3147 3146 3144 3142 3140 3138 3136 3134 3132 3130 3128 3126 3124 3122 3120 3118 3117 3115 3114 3112 3110 3109 3108 3107 3106 3105 3104 3103 3101 3100 3099 3097 3096 3096
3174 3175 3176 3176 3177 3178 3178 3179 3179 3179 3178 3178 3177 3176 3175 3174 3172 3170 3168 3165 3162 3159 3157 3155 3153 3151 3150 3148 3147 3145 3144 3142 3140 3137 3135 3134 3132 3130 3128 3126 3124 3122 3121 3119 3117 3115 3113 3111 3109 3108 3106 3105 3104 3102 3101 3100 3098 3097 3095 3094 3092 3091 3089
3172 3173 3174 3174 3175 3175 3176 3176 3177 3176 3176 3175 3174 3174 3173 3171 3169 3167 3165 3163 3160 3157 3155 3153 3151 3149 3148 3146 3145 3143 3141 3139 3137 3135 3133 3131 3130 3128 3126 3124 3122 3120 3119 3117 3115 3113 3111 3109 3107 3106 3104 3102 3101 3099 3098 3096 3095 3093 3091 3089 3087 3085 3084
3169 3170 3171 3172 3172 3173 3173 3174 3174 3174 3174 3173 3172 3172 3170 3169 3167 3165 3163 3160 3157 3155 3152 3151 3149 3148 3146 3144 3142 3141 3139 3137 3135 3133 3131 3129 3128 3126 3124 3123 3121 3119 3117 3116 3114 3112 3109 3107 3105 3103 3102 3100 3098 3096 3095 3093 3091 3089 3087 3084 3082 3080 3078
3167 3168 3169 3169 3169 3170 3171 3172 3172 3173 3172 3171 3170 3169 3168 3167 3165 3163 3160 3158 3155 3152 3150 3149 3147 3145 3144 3142 3140 3139 3137 3135 3133 3131 3130 3128 3126 3124 3123 3121 3120 3118 3116 3114 3112 3110 3108 3105 3103 3101 3099 3097 3095 3093 3092 3090 3087 3085 3082 3079 3077 3075 3073
3164 3165 3166 3166 3167 3168 3169 3170 3170 3170 3169 3169 3168 3167 3166 3164 3163 3161 3158 3155 3153 3150 3148 3147 3145 3143 3142 3140 3138 3137 3135 3133 3131 3130 3128 3126 3125 3123 3121 3120 3118 3116 3114 3112 3110 3108 3106 3104 3101 3098 3096 3095 3093 3091 3090 3088 3085 3082 3079 3076 3073 3071 3069
3162 3163 3164 3164 3165 3165 3167 3168 3168 3168 3167 3166 3166 3165 3164 3163 3161 3158 3156 3153 3151 3149 3146 3144 3143 3141 3140 3138 3136 3135 3133 3131 3129 3128 3126 3124 3123 3121 3120 3118 3116 3114 3113 3111 3109 3107 3104 3102 3099 3096 3095 3093 3091 3090 3088 3085 3082 3080 3077 3073 3070 3068 3065
3159 3160 3161 3161 3162 3163 3165 3166 3166 3165 3164 3164 3163 3162 3162 3161 3159 3156 3154 3151 3149 3147 3144 3142 3141 3139 3138 3136 3134 3133 3131 3129 3127 3126 3124 3123 3121 3119 3117 3116 3114 3112 3111 3109 3107 3105 3103 3100 3098 3095 3093 3092 3090 3087 3085 3083 3080 3077 3074 3071 3067 3065 3062
3156 3157 3158 3159 3160 3161 3163 3164 3163 3163 3162 3162 3161 3160 3160 3158 3156 3154 3151 3149 3147 3145 3142 3140 3139 3137 3136 3134 3133 3131 3129 3127 3125 3124 3122 3121 3119 3117 3115 3114 3112 3110 3109 3107 3105 3103 3101 3099 3097 3094 3092 3091 3088 3086 3084 3081 3077 3074 3071 3068 3064 3061 3059
3153 3154 3155 3156 3158 3160 3161 3161 3161 3161 3160 3160 3159 3158 3158 3156 3153 3151 3149 3147 3145 3143 3140 3138 3137 3135 3134 3132 3131 3129 3127 3125 3124 3122 3121 3119 3117 3115 3113 3112 3110 3108 3106 3105 3103 3101 3099 3097 3095 3093 3091 3089 3087 3085 3082 3078 3075 3073 3070 3065 3061 3058 3056
3151 3152 3153 3155 3157 3158 3159 3159 3159 3159 3158 3158 3157 3156 3155 3153 3151 3149 3146 3144 3143 3140 3138 3137 3135 3133 3132 3130 3129 3127 3126 3124 3122 3121 3119 3117 3115 3113 3111 3110 3108 3106 3104 3102 3101 3099 3097 3095 3094 3092 3090 3088 3086 3084 3080 3076 3074 3072 3068 3063 3059 3056 3053
3149 3150 3152 3154 3155 3156 3157 3157 3157 3156 3156 3156 3155 3154 3153 3150 3148 3146 3144 3142 3140 3138 3136 3135 3133 3132 3130 3128 3126 3125 3123 3122 3120 3119 3117 3115 3114 3112 3110 3108 3106 3104 3102 3100 3099 3097 3095 3093 3092 3090 3089 3086 3083 3082 3080 3076 3073 3070 3066 3062 3059 3055 3052
3147 3149 3151 3152 3154 3154 3155 3155 3155 3154 3154 3154 3153 3152 3150 3148 3146 3144 3142 3140 3138 3136 3134 3133 3132 3130 3128 3126 3124 3122 3121 3119 3118 3116 3115 3113 3112 3110 3108 3106 3104 3101 3100 3098 3097 3095 3093 3092 3090 3088 3087 3084 3081 3079 3077 3074 3070 3067 3064 3061 3057 3054 3051
3145 3147 3149 3150 3151 3152 3152 3152 3152 3152 3152 3152 3150 3149 3147 3145 3143 3141 3139 3138 3136 3134 3133 3131 3129 3127 3126 3124 3122 3119 3118 3117 3115 3114 3112 3111 3109 3107 3106 3103 3102 3100 3098 3096 3094 3093 3091 3090 3088 3087 3085 3083 3080 3077 3073 3071 3068 3065 3063 3060 3056 3053 3049
3144 3145 3147 3148 3149 3149 3150 3150 3150 3150 3150 3149 3148 3146 3145 3143 3141 3139 3137 3135 3134 3132 3131 3129 3128 3126 3123 3121 3119 3117 3115 3114 3113 3111 3110 3108 3107 3105 3103 3101 3099 3098 3096 3094 3092 3090 3089 3088 3086 3085 3083 3081 3079 3076 3073 3070 3067 3065 3062 3059 3055 3052 3047
3142 3144 3146 3146 3147 3147 3147 3148 3148 3148 3148 3147 3145 3144 3142 3140 3139 3137 3135 3133 3132 3130 3129 3127 3126 3124 3121 3119 3117 3115 3113 3112 3111 3109 3107 3106 3104 3103 3101 3099 3097 3096 3094 3092 3090 3088 3087 3086 3084 3083 3081 3079 3077 3075 3072 3069 3066 3064 3061 3058 3054 3050 3046
3142 3143 3144 3144 3145 3145 3146 3146 3146 3146 3146 3144 3142 3141 3139 3138 3136 3134 3133 3131 3129 3128 3127 3125 3124 3122 3120 3117 3115 3113 3111 3110 3109 3107 3105 3104 3102 3100 3099 3097 3096 3094 3092 3090 3088 3086 3085 3084 3082 3080 3079 3077 3075 3072 3070 3067 3064 3062 3060 3056 3053 3049 3045
3139 3140 3141 3142 3143 3144 3144 3144 3144 3143 3142 3141 3139 3138 3136 3135 3133 3131 3130 3129 3127 3126 3125 3123 3121 3119 3117 3115 3113 3111 3109 3108 3107 3105 3103 3102 3100 3098 3097 3095 3094 3092 3090 3088 3086 3084 3083 3081 3080 3078 3076 3074 3072 3070 3068 3065 3063 3061 3058 3056 3052 3048 3044
3137 3139 3140 3141 3142 3142 3142 3141 3140 3139 3138 3137 3136 3135 3133 3132 3130 3129 3128 3126 3125 3124 3122 3120 3119 3117 3115 3113 3111 3109 3107 3106 3105 3103 3101 3099 3098 3096 3095 3093 3092 3090 3088 3086 3084 3082 3080 3079 3078 3076 3074 3072 3070 3068 3066 3064 3061 3059 3057 3055 3052 3048 3044
3136 3138 3138 3139 3139 3139 3138 3138 3137 3136 3135 3134 3133 3132 3130 3128 3127 3126 3125 3123 3122 3121 3119 3118 3117 3115 3113 3111 3108 3107 3105 3104 3102 3101 3099 3097 3096 3095 3093 3091 3090 3088 3086 3085 3082 3080 3078 3077 3076 3074 3072 3071 3069 3066 3064 3062 3060 3058 3056 3054 3051 3048 3044
3135 3136 3136 3136 3136 3135 3135 3134 3133 3133 3132 3130 3129 3128 3127 3126 3125 3123 3122 3121 3119 3118 3117 3116 3114 3113 3110 3108 3106 3104 3103 3101 3100 3098 3097 3095 3093 3093 3091 3090 3088 3087 3085 3083 3081 3079 3077 3076 3074 3073 3071 3069 3068 3065 3063 3061 3058 3057 3055 3053 3050 3048 3044
3132 3133 3133 3133 3132 3132 3131 3131 3130 3129 3128 3127 3126 3125 3124 3123 3122 3120 3119 3118 3116 3115 3114 3113 3111 3109 3108 3106 3104 3102 3100 3099 3098 3096 3095 3093 3092 3090 3089 3088 3086 3085 3083 3082 3080 3078 3077 3075 3073 3072 3070 3068 3067 3064 3062 3060 3058 3055 3054 3052 3050 3047 3044
3129 3129 3129 3129 3129 3128 3128 3127 3126 3125 3124 3123 3122 3121 3120 3119 3118 3117 3116 3115 3113 3112 3111 3110 3108 3106 3105 3104 3102 3100 3098 3097 3095 3094 3093 3091 3090 3088 3087 3086 3085 3083 3082 3080 3079 3077 3076 3074 3073 3071 3069 3068 3066 3064 3062 3059 3057 3055 3053 3051 3049 3047 3044
3126 3126 3126 3125 3125 3124 3124 3123 3122 3122 3121 3120 3119 3118 3117 3116 3115 3114 3113 3112 3111 3109 3108 3107 3105 3103 3102 3101 3099 3098 3096 3094 3093 3092 3091 3089 3087 3086 3085 3083 3082 3081 3080 3078 3077 3075 3074 3073 3071 3070 3068 3067 3065 3063 3061 3059 3056 3054 3052 3051 3049 3047 3044
3123 3123 3122 3122 3122 3121 3120 3120 3119 3118 3118 3117 3116 3114 3114 3113 3112 3111 3110 3109 3108 3106 3105 3104 3102 3100 3098 3097 3096 3095 3093 3091 3090 3089 3088 3087 3085 3083 3082 3080 3080 3079 3078 3077 3075 3074 3073 3071 3070 3069 3067 3066 3064 3062 3061 3059 3056 3054 3052 3050 3048 3047 3045
3120 3120 3119 3119 3118 3118 3117 3116 3116 3115 3115 3114 3112 3111 3110 3109 3109 3108 3107 3106 3104 3103 3102 3100 3098 3097 3095 3094 3093 3091 3090 3088 3087 3086 3085 3083 3081 3080 3079 3078 3077 3077 3076 3075 3074 3073 3071 3070 3069 3068 3066 3065 3063 3061 3059 3058 3056 3054 3051 3049 3048 3047 3045
3117 3117 3116 3116 3115 3115 3114 3113 3113 3112 3111 3110 3109 3108 3107 3106 3105 3104 3103 3102 3101 3099 3098 3096 3095 3093 3092 3090 3089 3088 3086 3085 3084 3083 3081 3080 3078 3077 3077 3076 3075 3074 3073 3073 3072 3071 3070 3069 3068 3066 3065 3063 3062 3060 3058 3057 3055 3053 3051 3049 3048 3046 3045
3114 3114 3113 3113 3112 3111 3111 3110 3109 3108 3108 3107 3106 3105 3103 3102 3102 3101 3100 3098 3097 3095 3093 3092 3091 3090 3089 3087 3086 3084 3083 3081 3080 3079 3078 3076 3075 3074 3073 3073 3073 3072 3071 3070 3069 3069 3068 3067 3066 3065 3063 3061 3060 3059 3057 3056 3054 3053 3051 3049 3047 3046 3045
3111 3110 3110 3109 3108 3107 3106 3105 3105 3104 3104 3103 3102 3101 3099 3099 3098 3097 3095 3094 3092 3091 3089 3088 3087 3086 3085 3084 3082 3081 3079 3078 3076 3075 3074 3073 3072 3071 3070 3070 3070 3070 3069 3068 3067 3066 3066 3065 3064 3063 3061 3059 3058 3057 3056 3055 3053 3052 3051 3049 3047 3046 3044
3107 3106 3106 3105 3104 3103 3102 3101 3100 3100 3099 3099 3098 3097 3096 3095 3094 3093 3091 3089 3088 3086 3085 3084 3083 3082 3081 3080 3079 3077 3076 3074 3073 3071 3070 3069 3069 3068 3067 3067 3068 3067 3067 3066 3065 3064 3063 3062 3061 3060 3059 3058 3056 3055 3054 3053 3052 3051 3049 3048 3047 3045 3043
3103 3102 3101 3100 3099 3098 3097 3096 3096 3095 3095 3094 3093 3092 3091 3090 3089 3088 3086 3085 3084 3083 3082 3080 3079 3078 3077 3076 3074 3073 3072 3071 3070 3068 3066 3066 3066 3065 3065 3065 3065 3065 3064 3063 3062 3061 3061 3060 3059 3058 3057 3056 3054 3053 3052 3051 3050 3049 3048 3047 3046 3044 3042
3098 3097 3095 3094 3093 3093 3092 3091 3091 3090 3090 3089 3088 3087 3086 3086 3085 3084 3083 3082 3081 3079 3078 3077 3075 3074 3072 3071 3070 3069 3068 3067 3066 3065 3063 3063 3063 3062 3062 3062 3062 3062 3061 3061 3060 3059 3058 3058 3057 3056 3055 3054 3053 3051 3050 3050 3049 3048 3046 3045 3044 3043 3042
Wind_Speed
15 13 10 8 7 7 7 7 8 9 12 15 16 17 19 22 25 27 27 27 27 26 26 27 28 27 28 28 28 27 26 25 24 24 24 25 25 26 26 27 27 27 27 27 27 28 28 27 27 27 27 27 27 28 29 30 32 32 31 31 32 32 32
18 14 10 8 7 8 9 10 10 11 14 16 18 19 22 24 26 27 28 28 28 27 27 27 27 27 27 27 27 27 26 26 25 25 25 25 25 27 28 28 28 27 26 26 25 26 26 26 26 26 27 28 29 29 30 31 32 33 33 33 33 34 34
20 16 11 8 8 10 12 12 12 13 15 17 19 21 24 26 27 27 28 29 29 28 28 27 27 27 26 26 27 27 27 26 26 25 25 25 26 27 28 29 29 28 26 25 25 25 25 25 26 26 26 26 27 28 29 29 31 33 35 35 35 35 35
20 16 11 10 10 13 15 14 13 15 16 18 20 23 26 27 27 27 29 30 30 29 29 28 28 27 26 26 26 26 26 26 26 26 26 26 26 27 28 29 29 29 27 25 25 24 25 26 25 26 25 25 25 26 26 26 27 29 32 35 36 36 36
18 16 12 11 13 15 16 14 14 16 17 18 21 24 27 28 27 28 30 31 31 30 29 28 28 27 26 26 25 26 26 26 26 26 25 25 26 26 27 27 28 28 27 26 25 24 25 25 25 24 24 24 24 25 25 25 26 26 28 31 34 36 36
15 14 12 12 14 16 16 15 15 16 17 19 22 26 28 28 27 29 32 32 31 31 30 29 28 27 26 26 26 26 26 26 26 25 24 25 25 25 26 26 27 26 26 26 25 24 24 24 24 24 24 24 24 24 24 25 26 27 28 30 33 34 35
12 12 13 13 15 16 16 16 15 16 17 20 23 27 28 27 28 31 32 32 31 31 30 29 27 27 26 26 25 25 25 25 24 24 23 24 24 25 25 25 25 24 23 24 24 24 23 24 25 25 25 25 25 24 23 24 27 28 29 31 33 35 35
13 14 14 15 17 18 17 16 15 16 18 21 24 27 27 27 30 32 31 31 31 30 29 28 27 26 26 25 24 24 24 24 23 23 23 23 23 23 24 23 22 22 21 22 23 24 24 25 25 24 23 24 25 25 24 24 26 28 29 31 33 35 36
14 15 16 17 19 19 18 17 16 17 19 22 25 26 26 28 30 31 31 30 30 29 28 27 26 26 26 24 23 24 24 23 23 23 23 23 22 22 22 21 20 21 21 21 23 24 25 25 26 24 23 23 24 25 26 26 26 27 29 31 33 35 35
15 16 18 20 21 20 19 18 16 17 20 22 24 25 26 28 30 30 30 29 29 28 28 27 27 26 25 23 23 24 24 23 23 23 23 23 22 22 22 21 21 22 22 23 23 25 26 27 28 28 25 24 24 24 26 27 28 29 30 32 33 33 33
16 18 20 22 22 21 20 18 16 17 20 22 23 24 26 28 29 29 29 28 29 29 28 27 27 25 24 23 22 23 24 23 23 23 23 22 22 22 22 22 22 22 23 23 23 24 26 28 29 29 27 25 25 26 27 28 29 29 29 29 30 30 30
16 19 22 24 24 22 20 18 16 18 20 22 22 23 26 27 28 28 28 28 28 28 28 27 26 25 23 22 23 23 23 22 22 22 22 22 22 22 22 22 22 22 22 23 23 24 26 28 29 29 27 24 24 25 27 28 27 26 25 24 25 28 29
17 21 23 25 24 23 20 18 17 18 20 21 21 23 25 26 27 27 27 27 28 28 27 26 25 24 23 23 23 22 22 21 21 21 21 21 21 21 21 21 21 21 22 23 24 24 26 28 28 28 26 22 21 22 24 25 25 25 25 25 25 28 29
19 23 26 26 26 24 20 17 16 18 20 21 21 22 25 26 26 27 26 27 27 27 26 25 24 23 23 23 22 21 21 21 21 22 22 21 21 20 20 20 20 21 22 23 23 24 25 27 28 27 25 21 20 22 23 23 25 27 28 28 28 28 29
21 25 27 27 26 22 18 16 16 18 21 21 21 23 25 25 26 26 26 26 27 26 26 25 24 23 23 22 22 20 20 20 21 22 22 21 21 20 19 19 20 21 21 22 22 23 24 26 27 27 25 22 21 23 24 23 25 30 31 30 29 27 27
23 25 26 27 25 20 16 15 17 19 21 21 22 24 24 24 26 27 26 26 27 26 25 24 24 23 22 22 21 21 21 21 22 22 22 21 21 20 19 18 19 20 21 21 21 22 23 25 26 26 25 23 22 24 25 25 26 29 33 34 31 27 26
24 25 26 25 22 18 16 16 19 20 21 22 23 24 24 24 26 27 27 27 27 26 24 23 23 23 23 23 23 23 23 23 23 22 22 21 21 21 20 19 19 20 21 20 20 21 22 23 24 25 25 24 23 24 26 28 28 29 31 34 33 28 26
24 25 25 24 21 18 17 18 19 20 21 23 24 24 23 25 27 28 28 28 27 25 23 23 23 24 25 25 25 25 24 23 23 22 21 21 22 22 21 20 20 21 21 21 20 20 21 21 22 23 23 24 24 24 25 27 28 29 30 32 33 31 29
24 24 23 22 21 18 17 18 19 20 23 24 24 23 23 26 27 28 29 29 27 24 23 23 23 24 25 25 26 26 24 23 22 22 22 22 23 23 22 21 21 21 22 21 20 20 20 20 20 21 22 23 24 25 26 27 28 29 30 32 33 34 35
21 22 23 22 20 18 17 18 19 21 24 24 24 24 25 26 26 28 30 29 25 23 23 23 23 24 24 25 26 26 24 22 21 22 23 23 23 24 23 22 21 22 22 21 19 19 19 19 18 19 21 22 23 25 27 28 29 29 30 32 33 35 37
15 20 22 21 19 18 18 19 21 23 24 24 24 26 26 25 25 28 29 26 23 22 22 22 23 24 25 26 26 25 23 21 20 22 24 24 24 24 24 24 22 22 21 19 18 18 18 18 17 18 19 21 22 23 25 26 27 27 28 31 33 34 37
14 18 20 19 18 18 18 20 22 23 23 23 24 26 24 23 25 28 26 22 22 22 22 22 23 24 26 26 25 23 22 20 20 22 24 25 24 24 24 24 23 22 20 18 17 17 17 17 17 18 18 20 21 22 24 24 25 25 26 28 31 33 35
17 18 18 18 17 18 19 21 22 22 21 22 24 24 23 24 26 25 21 21 22 22 22 23 24 25 26 26 25 22 21 20 21 22 24 25 24 24 24 24 23 21 20 18 17 17 17 16 17 18 19 20 21 22 23 24 24 24 25 25 28 31 33
19 20 19 18 18 20 21 21 20 20 20 22 23 23 24 26 25 22 21 22 23 22 23 24 25 27 27 26 24 22 21 20 21 22 24 24 24 24 23 23 23 21 20 19 18 19 18 17 17 19 20 20 21 22 23 24 24 24 23 22 25 28 31
19 20 19 19 20 20 19 18 18 20 21 23 23 24 26 26 24 22 23 23 23 23 24 25 26 28 28 26 23 21 20 20 21 22 23 23 23 23 23 22 22 21 20 19 19 19 20 19 18 19 20 20 21 22 22 22 22 22 21 20 22 25 29
18 18 19 19 19 18 17 18 19 21 24 24 24 24 26 26 25 24 24 24 23 24 25 25 26 28 28 27 23 21 19 20 21 22 22 22 22 22 22 21 20 20 20 20 19 19 20 19 19 19 19 19 20 21 22 22 21 20 19 18 20 23 26
16 17 18 18 18 17 18 20 21 23 25 24 23 23 25 26 25 25 25 24 24 24 25 26 27 28 28 26 23 22 20 20 21 22 22 22 22 22 21 20 19 20 20 20 19 19 19 18 18 18 17 18 19 20 21 22 21 20 18 16 17 20 23
17 17 18 19 19 19 19 20 22 24 24 22 21 22 25 26 26 25 25 24 24 24 26 27 28 28 26 25 23 23 22 21 21 22 22 22 23 22 21 19 19 20 20 20 19 18 18 18 18 18 17 17 18 19 20 21 22 21 19 17 16 16 19
18 19 20 21 20 19 20 22 24 25 22 19 20 23 25 26 26 26 26 25 25 25 26 28 28 27 25 24 23 23 23 22 21 21 22 23 23 22 21 19 19 19 20 19 18 18 18 18 18 18 18 18 18 19 20 21 22 23 21 18 16 13 13
20 21 21 20 20 21 22 24 25 23 20 19 23 25 26 26 26 27 27 26 26 26 27 27 26 26 26 24 23 22 23 23 21 21 22 23 23 22 20 19 19 19 19 19 19 19 19 19 20 20 19 19 19 20 20 21 21 22 22 20 18 14 11
21 21 21 21 22 23 24 25 24 23 21 22 25 27 27 26 27 28 28 28 28 27 27 26 26 26 26 25 23 22 22 23 22 21 22 24 25 22 18 17 19 20 20 20 19 20 20 20 20 21 20 20 21 21 21 21 20 20 21 21 20 17 14
21 21 22 22 23 24 25 25 25 23 22 24 26 28 27 27 28 29 29 29 28 27 26 26 26 25 25 24 24 22 22 22 23 23 23 25 26 23 19 18 19 19 20 21 20 20 20 20 20 21 21 21 21 22 22 21 20 19 20 20 20 19 17
21 22 22 23 23 25 26 26 25 24 24 25 27 27 27 28 29 30 29 29 27 26 27 27 27 25 25 25 24 24 24 24 24 25 25 26 25 23 20 20 20 19 20 21 20 20 21 21 21 22 23 22 21 21 22 21 20 19 18 19 19 19 18
22 23 24 25 27 28 29 28 26 25 25 25 26 27 28 30 30 29 28 27 27 27 28 28 27 25 25 26 25 25 26 25 24 24 25 25 24 22 20 20 20 20 20 21 21 21 21 21 22 22 23 23 22 21 21 20 20 19 18 18 18 17 17
25 27 29 31 32 33 32 30 27 26 25 26 27 29 31 31 30 28 27 27 27 28 29 29 28 26 26 26 27 26 26 25 24 25 25 23 22 22 20 20 20 20 21 22 22 22 21 21 22 22 22 22 22 21 20 19 18 18 17 17 17 17 16
30 31 32 33 33 32 29 26 24 24 25 27 29 32 32 30 28 26 27 28 28 29 30 30 30 29 27 27 29 29 27 25 25 26 25 22 21 21 20 20 20 19 20 21 22 21 21 21 22 22 21 21 21 20 19 18 18 17 17 17 17 17 17
30 31 31 30 29 26 24 23 23 24 25 27 29 31 30 29 27 26 27 28 29 29 30 31 31 31 30 30 32 31 28 24 24 26 26 24 21 20 19 19 19 18 18 20 20 20 20 21 22 22 21 20 19 19 19 18 18 17 17 17 17 17 16
28 29 28 28 27 25 24 24 24 25 26 27 28 29 28 27 26 26 27 28 29 29 30 31 32 33 33 33 33 32 29 25 23 25 26 24 21 19 18 18 17 16 16 18 18 18 19 21 22 22 21 20 19 20 20 19 18 18 17 17 17 17 15
Wind_Direction
230 227 220 213 209 218 243 271 287 304 313 318 326 328 331 334 334 333 333 335 338 337 332 329 328 329 329 328 326 323 322 319 316 314 313 314 315 315 314 312 311 308 306 304 301 298 295 291 288 287 287 285 284 283 281 280 279 278 274 271 268 266 265
231 234 229 227 227 230 246 268 286 300 307 316 324 326 329 332 332 330 331 334 336 335 331 329 329 331 332 331 329 326 324 322 321 319 318 319 319 318 317 316 314 313 311 308 305 301 298 296 293 291 291 290 290 289 286 282 280 280 279 275 272 269 267
235 240 239 243 242 238 250 266 284 295 302 312 321 324 328 330 330 329 331 334 335 333 331 331 332 333 334 333 331 328 325 324 323 322 321 321 320 320 318 317 316 315 314 311 307 305 302 300 298 296 294 293 292 291 289 285 281 279 278 276 273 270 268
238 241 242 251 245 242 255 268 282 291 298 308 316 321 326 329 329 329 331 333 334 333 332 333 333 334 335 334 332 329 326 324 323 321 321 322 321 321 319 318 317 316 315 312 308 305 301 299 297 295 294 292 291 290 290 288 285 281 278 276 273 270 267
239 239 245 255 249 250 262 270 279 288 295 304 311 318 325 328 328 328 331 333 334 333 333 333 333 334 334 333 333 330 327 324 321 321 322 323 323 322 321 320 318 317 316 313 309 306 302 299 297 295 293 292 292 291 291 292 291 288 284 280 276 273 269
243 244 253 260 254 256 263 268 276 286 292 299 307 316 324 327 327 328 331 334 334 334 333 332 332 333 333 333 332 329 326 322 321 322 323 323 323 323 322 321 319 318 317 314 312 309 307 305 303 301 298 296 295 294 295 297 297 294 290 286 283 279 275
246 248 253 254 254 257 260 265 275 283 289 296 305 315 323 327 327 329 332 334 334 333 331 331 332 332 333 332 331 328 325 322 323 324 325 324 324 324 322 321 320 321 321 318 317 316 315 313 310 308 305 302 297 292 293 296 297 296 293 290 287 285 281
242 246 250 252 254 256 258 264 273 281 286 295 305 315 322 326 328 330 332 334 334 332 331 331 332 332 331 332 331 328 326 325 326 327 327 326 325 324 322 321 321 322 322 322 323 322 321 319 316 314 314 311 302 295 292 293 292 292 293 293 290 286 282
238 243 245 248 251 253 255 261 270 279 285 294 305 314 322 327 329 330 332 334 333 332 331 331 330 329 330 332 332 328 327 329 330 330 329 327 326 324 322 320 319 320 321 323 324 324 323 321 319 318 318 317 313 306 300 297 293 290 291 295 295 289 282
238 243 244 246 248 249 253 260 269 278 285 294 304 315 324 328 329 329 331 333 333 332 331 329 329 328 329 332 330 328 328 330 332 333 331 328 326 324 322 319 317 318 320 321 322 323 323 323 323 321 316 314 317 316 312 309 305 297 291 291 295 292 283
240 244 246 247 248 249 255 262 269 276 284 293 304 316 325 328 328 329 331 333 333 332 330 328 328 328 328 329 327 325 326 328 332 333 331 328 326 323 321 319 316 317 320 323 324 325 326 326 327 325 318 311 312 317 321 320 312 305 298 295 296 295 287
244 246 247 248 250 253 256 259 265 274 283 293 305 318 326 326 326 328 331 332 332 331 329 327 327 327 327 325 323 322 323 326 329 331 329 328 325 322 320 318 317 318 321 325 327 329 330 331 331 329 324 317 313 316 322 323 318 314 312 309 304 297 290
247 247 249 250 251 252 252 256 265 274 283 293 306 320 324 322 325 329 331 333 332 330 328 326 326 326 324 322 320 319 320 324 328 328 327 326 326 323 319 317 317 319 323 327 330 332 335 337 336 333 329 322 316 319 324 325 326 325 320 317 311 302 294
247 242 245 247 248 248 250 257 267 276 283 293 308 319 319 319 325 330 332 333 332 329 327 325 325 324 322 321 320 319 320 325 329 328 326 326 326 324 318 316 317 320 325 329 331 334 338 341 340 337 333 327 323 326 328 330 338 341 332 322 316 309 302
246 241 242 246 247 249 252 261 271 278 284 293 308 314 314 318 326 331 334 335 332 329 326 325 323 322 323 323 322 321 323 326 328 329 328 327 326 323 318 315 316 320 326 330 333 336 340 342 342 340 339 335 332 330 329 334 345 351 347 337 324 312 307
247 244 245 247 248 250 255 264 272 278 284 294 305 308 310 318 326 331 335 335 332 328 326 324 321 320 321 323 322 322 321 322 324 326 328 328 327 323 318 315 316 320 325 330 333 336 339 341 340 339 339 339 336 330 330 336 343 348 351 349 340 324 312
247 246 248 247 246 249 257 266 272 277 285 294 300 303 309 318 325 332 336 335 331 327 324 323 320 318 318 319 319 318 315 314 317 321 325 328 328 325 320 316 316 319 323 329 333 335 337 338 337 338 338 338 337 335 334 334 338 346 351 350 347 340 324
249 248 247 244 244 252 260 266 271 278 286 293 297 301 310 318 325 332 334 333 329 324 322 322 319 317 317 317 317 316 313 310 311 316 323 327 328 326 323 318 316 317 320 326 332 334 335 336 337 338 337 337 337 337 335 334 338 347 350 346 345 343 334
251 250 246 243 248 256 260 265 273 280 287 293 296 301 311 319 326 331 331 329 326 321 320 320 319 318 317 317 316 314 313 311 309 313 321 325 325 324 323 322 319 317 319 325 330 332 333 334 337 338 339 339 337 334 333 337 342 345 345 343 342 341 338
251 248 244 245 251 254 258 267 277 283 287 292 297 305 314 320 324 327 327 326 323 319 318 319 320 321 320 319 317 313 312 312 309 312 319 323 323 321 320 322 321 319 321 325 329 330 331 332 335 337 338 337 336 334 333 336 340 340 341 342 341 342 343
244 242 242 246 250 253 262 273 279 282 286 294 301 309 316 319 322 323 323 323 321 318 319 321 323 324 322 321 318 312 309 309 309 312 317 320 321 320 318 320 321 322 323 326 328 329 329 330 332 335 336 333 332 331 330 331 334 336 340 342 340 342 346
243 242 243 245 249 257 268 275 278 282 288 296 305 311 313 314 318 321 322 323 322 320 320 323 327 328 325 323 318 311 306 305 308 312 316 319 320 319 317 318 321 323 325 327 327 327 328 328 329 334 336 332 328 327 326 327 330 333 338 342 341 342 347
238 238 238 242 251 263 272 276 280 287 292 299 307 309 308 311 317 322 325 325 323 320 320 322 328 331 328 323 318 309 302 302 306 312 316 319 318 316 315 317 321 324 327 328 327 325 326 326 327 333 337 333 329 326 326 326 327 331 337 343 344 343 348
229 233 236 245 258 267 273 279 286 292 295 300 305 305 305 312 318 322 325 324 321 319 321 324 329 332 329 325 318 309 302 302 306 311 315 318 316 315 315 318 322 327 329 330 328 326 326 327 329 333 335 333 329 327 328 328 328 332 338 344 347 347 351
231 236 242 252 262 270 279 288 294 298 300 303 305 304 306 313 318 320 320 318 316 318 322 327 330 331 329 325 317 309 303 303 307 311 314 315 314 314 317 320 326 330 331 331 330 326 326 329 332 332 333 332 330 328 330 331 330 333 339 347 351 351 354
234 241 251 260 269 281 294 301 303 306 307 306 305 305 306 310 314 314 311 309 311 316 322 327 329 329 328 325 318 310 305 304 307 311 312 313 313 314 318 323 328 331 331 331 330 327 328 332 334 333 332 333 332 333 335 335 334 336 341 348 355 355 356
243 253 264 274 285 298 306 308 311 314 312 308 303 301 303 306 309 307 303 303 308 314 318 323 324 325 326 326 320 312 306 304 307 309 309 310 312 315 320 325 329 329 328 330 331 330 333 337 338 337 336 335 336 338 340 340 340 340 341 345 353 357 357
256 268 281 289 297 304 308 310 314 316 314 307 296 292 296 301 302 300 298 302 307 309 313 318 320 322 325 326 321 312 306 303 304 306 306 306 309 314 321 327 328 326 325 327 330 331 334 339 341 342 342 340 338 340 342 343 343 343 343 345 348 352 358
274 285 293 296 300 304 306 310 314 315 311 298 284 284 290 296 298 296 297 302 305 304 308 315 318 319 323 325 321 313 306 302 301 303 303 303 307 313 319 324 325 323 322 325 329 330 332 335 339 342 343 342 341 341 342 343 345 344 344 345 347 349 356
284 290 292 293 297 301 305 309 311 308 299 283 275 279 286 292 295 295 297 301 301 300 306 312 315 316 319 321 318 311 305 301 298 299 300 302 304 306 310 317 321 321 322 325 328 329 331 333 335 337 339 340 340 341 341 342 344 345 345 345 345 350 354
284 286 286 289 294 299 302 305 304 298 289 277 275 279 283 287 291 293 296 298 298 299 304 308 311 312 314 316 315 308 301 297 293 293 296 297 296 296 300 308 315 318 320 323 326 327 328 329 331 332 335 338 340 341 342 343 343 344 345 345 344 348 352
279 280 282 286 291 295 298 298 296 292 284 277 276 279 280 283 289 293 295 296 296 298 301 305 307 309 310 312 309 301 295 291 286 286 288 288 289 293 299 302 306 311 315 317 320 322 323 325 328 330 332 334 338 341 342 344 345 343 343 344 344 345 346
275 277 280 283 287 290 292 292 290 287 283 279 278 277 277 281 288 292 294 295 296 297 300 303 304 306 307 308 303 296 291 287 285 285 285 284 285 292 298 299 299 304 307 309 311 316 318 321 324 328 329 331 334 338 340 342 345 344 342 342 344 344 343
277 277 278 281 284 286 287 287 286 283 281 278 275 273 275 280 286 291 292 294 295 298 300 302 302 303 306 305 301 296 292 289 287 286 285 283 284 290 295 297 296 299 303 303 305 309 314 318 322 325 327 329 331 334 336 339 342 343 342 341 342 343 343
278 278 279 282 284 286 286 286 283 279 276 273 270 271 274 279 285 289 290 291 294 298 300 301 301 302 302 302 301 298 293 288 286 283 280 280 283 287 292 295 295 297 302 303 303 305 310 315 320 323 325 326 328 330 332 334 337 340 341 340 340 342 345
279 279 282 285 287 288 289 286 281 277 274 272 271 271 274 279 283 286 287 289 294 298 300 300 300 299 297 296 297 297 293 289 286 283 279 278 280 282 286 290 292 296 301 303 303 305 308 312 316 320 322 323 325 327 328 329 331 334 337 339 338 339 342
283 285 289 291 293 292 289 284 279 276 274 273 273 273 275 279 282 284 287 291 296 299 300 300 300 297 292 289 291 292 290 285 282 281 278 275 274 277 281 286 291 296 301 304 306 307 308 309 311 315 319 321 323 325 326 327 328 328 331 335 337 337 339
293 296 299 300 298 294 288 283 280 278 275 274 273 273 275 279 282 285 289 293 296 297 298 298 298 295 291 288 286 285 282 276 273 274 274 271 269 271 276 279 286 295 301 306 309 308 305 305 308 312 316 319 321 322 323 322 323 323 324 326 331 335 337